星链-31571 (STARLINK-31571 )

导读

STARLINK-31571是美国太空探索技术公司(SpaceX)星链互联网卫星星座的一员,于2024年3月31日发射升空。星链计划旨在构建覆盖全球的低轨卫星互联网星座,该卫星入轨后,将和其他星链卫星协同,为全球用户提供低延迟、高速率的卫星互联网接入服务,进一步完善星链星座的全球覆盖能力。

基本信息
目录编号:
59362
目录名称:
STARLINK-31571
国际标识:
2024-060Q
轨道中心:
EARTH
卫星名称:
星链-31571
卫星全名:
星链-31571 (STARLINK-31571 )
卫星状态:
在轨 (已飞行895 天)
发射日期:
2024-03-31 UTC
国别 :
美国 (US)
星等 :
--
该卫星已列入 空间交会检测服务 Space Conjunction Data Service (SCDS) ,当前飞行风险评估等级: 无高风险
轨道信息
数据来源 国际轨道数据 AOE轨道数据
星历时间 2026-09-11T19:19:56+0800
13小时前
查看轨道信息
2026-09-09T08:00:00+0800
3天前
查看轨道信息
半长轴 6861.193km 6861.197km
偏心率 0.0001092 0.0001296
轨道倾角 43.001° 43.001°
近地点辐角 279.723° 227.871°
升交点赤经 290.844° 304.807°
平近点角 80.350° 201.074°
近地点 482.306km 482.17km
远地点 483.806km 483.95km
周期 94.267分钟 94.267分钟
每日圈数 15.27578 15.275764
详细信息
固有亮度:
5
最大亮度:
0.3
卫星平台:
Starlink v2.0 mini
覆盖范围:
全球
运营商:
太空探索技术公司
运营商所在国:
美国
制造商(研发单位):
太空探索技术公司
制造商所在国:
美国
使用方式:
暂无
卫星简介
星链(Starlink)计划是由太空探索技术公司(SpaceX)提出的一个巨型低轨卫星互联网星座项目,计划在2019年至2024年间在太空搭建由约1.2万颗卫星组成的“星链”网络,其中1584颗将部署在地球上空550千米处的近地轨道,并从2020年开始工作。该卫星仍在工作。
2D轨道图
3D轨道图
轨道高度分析图
轨道倾角分析图
轨道综合分析图
查看轨道综合分析图
交会数据列表
事件ID 空间交会对象 最接近时刻(TCA) 交会距离 交会风险概率(CRP) 交会风险指数(CRI) 操作
CDM_260913-175605-276005-936222
2026-09-13T
17:56:42+0000
0.695 km
远距离
8.00038E-5 中风险 0.73
CDM_260911-220505-936206-401221
2026-09-11T
22:05:55+0000
0.992 km
远距离
1.779738E-5 中风险 0.6
CDM_260912-095205-936206-401221
2026-09-12T
09:52:04+0000
1.322 km
极远距离
6.614638E-6 低风险 0.51
CDM_260911-234005-936206-401221
2026-09-11T
23:40:04+0000
1.928 km
极远距离
2.106651E-6 低风险 0.41
CDM_260912-081705-936206-401221
2026-09-12T
08:17:55+0000
2.986 km
极远距离
9.40373E-7 极低风险 0.34
与全量物体交会距离演化趋势
与全量物体交会风险概率演化趋势